RH
12 10 10 13 13 14 14 12 12 12 15 20 18 36 62 69 71 71 53 42 49 62 69 63 64 74 76 80 86 84 82 83 82 77 73 75 77 78 78 73 67 66 66 60 52 51 51 41 36 36 34 44 58 52 42 40 45 54 59 65 68 59 57 62 61 63 67 64 63 65 64 62 63 63 62 58 53 54 55 53 55 53 44 46 45 38 52
12 10 11 13 13 15 14 11 13 12 15 19 18 35 60 64 69 76 60 46 51 60 66 67 68 70 69 80 95 91 83 83 76 68 72 74 74 77 78 72 69 68 61 56 54 56 55 46 42 42 40 44 49 45 38 34 46 63 64 65 70 66 69 71 58 54 61 61 64 68 65 63 63 64 66 63 60 64 62 56 56 50 46 52 48 40 49
12 11 11 13 13 15 15 12 13 12 15 20 18 35 61 63 66 74 66 60 64 63 63 66 73 79 74 81 95 90 88 89 68 57 73 79 72 77 81 74 67 64 58 55 55 54 55 55 51 45 41 44 47 45 36 31 43 56 53 54 63 65 76 80 63 57 61 62 66 66 60 60 63 64 67 66 66 68 66 61 52 47 51 55 49 48 53
12 11 11 12 13 15 15 13 13 12 16 20 19 39 65 67 67 71 64 64 67 63 64 64 68 81 80 79 87 84 86 88 69 60 76 82 78 81 82 73 64 63 64 63 59 53 53 58 57 48 43 45 49 48 39 32 35 37 37 43 51 59 71 73 68 69 68 66 69 68 66 65 63 64 66 66 68 69 71 67 55 56 64 56 51 61 62
12 12 11 12 14 15 15 13 13 13 16 20 24 47 72 73 76 77 63 60 65 64 72 75 72 81 84 79 82 81 80 82 78 76 80 79 82 84 80 73 66 66 71 69 62 55 53 54 54 51 49 45 44 46 44 36 29 29 35 42 49 63 70 66 69 75 72 69 69 68 72 72 67 67 68 67 67 68 72 71 64 70 70 54 53 66 65
12 12 12 13 14 15 15 14 14 14 17 21 26 52 80 80 81 81 62 60 73 72 75 78 71 75 84 83 84 82 79 79 79 81 81 78 79 80 77 77 74 71 73 72 65 60 56 56 53 51 51 46 44 53 60 53 43 40 46 53 62 71 72 67 70 75 75 73 69 66 69 71 71 72 70 68 66 66 71 72 70 75 71 60 63 68 64
13 13 13 15 15 16 15 14 14 14 17 22 28 52 79 83 86 88 67 61 76 74 69 73 69 73 82 83 85 87 82 79 78 79 80 78 77 76 74 75 74 73 74 74 71 67 62 60 58 54 56 54 51 58 67 66 62 60 61 70 77 73 67 66 68 73 75 70 65 64 67 69 71 70 69 68 68 69 72 71 69 71 71 68 68 65 60
14 14 15 16 15 16 16 14 15 15 16 24 34 51 70 77 82 82 64 65 85 83 75 79 81 86 88 80 80 85 82 82 83 80 76 74 75 76 75 75 75 76 78 75 73 74 72 68 68 66 64 62 57 57 63 66 69 71 71 76 81 77 71 70 70 72 70 63 60 63 68 70 69 68 71 71 72 73 71 69 69 70 72 70 64 59 54
16 16 16 17 16 16 16 15 15 17 17 25 38 51 64 74 78 68 56 68 89 86 77 79 80 83 86 83 83 85 84 85 85 80 77 76 76 74 75 79 80 74 74 74 73 76 75 69 69 70 67 64 62 61 63 63 66 71 73 76 80 80 75 71 68 65 59 55 57 63 71 73 69 70 72 71 75 78 75 73 72 70 73 70 59 54 50
18 17 16 18 17 16 17 16 15 17 18 24 39 54 64 75 79 70 63 73 84 79 72 72 72 75 81 84 84 85 87 93 92 85 80 79 79 76 75 83 85 78 78 82 78 72 73 72 69 69 68 66 64 61 60 62 65 67 71 76 77 75 72 69 65 59 54 52 54 60 68 68 64 65 65 66 75 78 73 74 73 69 71 70 59 52 49
20 21 22 23 22 19 17 16 16 17 18 23 38 54 66 77 80 74 75 83 84 77 72 69 70 76 83 86 87 86 87 93 96 92 87 87 89 87 82 82 85 85 84 86 83 75 74 74 68 65 64 61 58 54 49 52 60 62 66 73 73 69 70 70 66 60 54 46 43 47 52 54 57 60 59 66 78 79 71 71 73 71 72 74 65 54 50
29 31 32 31 31 27 22 18 17 17 19 24 35 50 67 81 81 72 75 88 90 81 74 72 74 78 82 85 87 88 88 91 96 96 94 95 98 97 90 80 79 84 83 81 81 76 69 67 65 63 62 59 58 56 51 52 60 62 64 69 70 70 71 70 65 59 52 44 42 44 47 52 55 53 51 56 65 73 76 73 74 74 73 77 73 61 56
37 40 40 37 36 33 25 20 18 17 19 23 31 49 70 84 84 73 71 80 88 86 81 78 77 77 79 82 85 88 91 93 98 98 93 93 96 99 96 89 86 89 88 80 71 59 56 65 71 69 66 62 60 59 59 61 64 65 66 68 69 70 72 71 67 60 54 48 47 49 51 53 53 50 53 55 57 70 81 74 68 70 72 75 76 72 67
45 48 48 42 37 31 24 20 19 18 20 22 29 47 69 82 85 80 74 73 78 85 86 81 77 76 78 83 87 92 95 95 96 98 95 93 95 94 94 96 96 92 87 80 68 57 59 66 64 59 57 57 58 60 61 62 63 65 70 71 70 71 73 74 71 63 56 51 48 48 47 51 60 63 62 62 63 71 78 68 58 63 72 76 80 81 75
61 57 48 38 32 28 24 22 21 19 21 23 28 41 62 79 85 85 82 73 67 75 86 86 82 80 81 84 88 94 98 97 95 95 95 95 94 93 94 97 96 89 78 68 64 70 76 69 55 48 48 50 57 65 68 68 68 71 73 72 73 74 75 75 73 67 62 57 53 50 44 47 60 65 60 59 61 63 67 65 60 66 76 79 82 85 78
79 65 48 38 34 30 26 25 22 21 22 25 27 36 54 74 82 84 86 79 67 69 84 92 89 83 80 83 89 93 94 95 97 96 94 94 94 95 97 93 87 80 64 48 53 72 76 64 54 50 46 44 48 57 64 65 65 72 76 72 75 81 82 81 80 74 67 61 55 50 46 46 54 61 60 57 58 61 66 67 66 72 80 81 83 84 77
93 80 59 45 41 36 30 27 25 23 23 26 27 33 50 68 76 78 86 88 77 68 76 91 96 88 80 78 82 87 87 88 95 97 94 94 95 95 94 88 84 80 66 56 69 81 70 54 50 48 43 40 41 46 51 52 54 66 74 72 76 84 86 87 86 79 71 67 59 52 47 46 51 61 61 54 54 62 67 65 64 70 78 82 83 79 75
95 92 78 61 50 43 35 29 28 26 24 27 29 33 45 60 67 71 80 89 87 76 77 93 99 93 87 82 81 90 92 90 94 97 91 90 93 93 91 88 85 83 75 71 78 80 66 54 50 48 44 43 43 44 44 43 45 52 60 65 72 78 79 79 78 72 65 63 62 56 48 46 51 60 61 55 53 59 64 66 70 73 77 83 84 78 76
89 91 92 81 65 54 44 34 30 29 26 27 31 34 43 54 61 66 72 82 89 86 86 97 101 95 93 88 82 89 97 95 96 99 94 89 88 87 89 90 86 82 82 81 78 73 66 58 53 51 47 43 46 49 45 42 42 41 43 49 55 62 69 72 72 69 63 59 58 52 48 54 63 66 67 64 59 61 68 73 73 71 74 79 81 79 78
84 85 93 93 79 67 57 44 34 31 30 29 31 34 41 52 59 62 65 74 86 89 87 94 97 95 96 93 86 90 97 96 94 94 93 92 92 89 91 92 84 78 82 84 78 71 67 60 53 52 49 45 49 53 49 44 42 39 39 40 41 46 55 59 61 63 60 56 56 52 52 62 68 68 70 71 65 64 72 76 73 74 77 79 78 78 80
80 80 87 97 94 83 74 60 47 38 32 30 32 33 39 49 57 59 60 67 80 86 88 90 88 84 86 85 79 84 92 96 97 95 92 96 98 95 93 93 86 79 82 85 80 72 68 64 59 57 56 52 49 48 46 44 43 39 39 40 40 41 44 44 47 50 49 48 52 56 61 65 64 61 65 72 71 67 69 72 75 79 81 82 81 79 82
76 78 82 91 97 96 89 77 65 53 41 33 33 34 37 46 54 58 59 63 71 80 89 93 86 80 79 75 66 66 76 88 97 94 88 92 94 88 86 92 93 88 86 88 87 81 79 77 70 64 62 59 54 50 49 48 45 41 40 40 41 42 44 46 49 52 54 54 57 60 60 58 57 57 59 64 70 73 72 71 74 78 81 83 83 82 88
74 79 81 82 88 97 99 90 79 68 55 44 37 35 37 44 52 57 60 63 67 75 86 94 91 84 80 74 65 61 65 75 84 81 75 77 79 75 77 87 94 93 91 90 88 87 90 89 81 75 71 66 62 59 56 52 49 46 44 43 43 44 48 50 51 53 55 57 57 56 53 50 53 60 62 63 69 78 80 75 78 88 90 86 86 88 92
76 80 83 83 83 88 96 98 93 83 73 62 51 42 40 45 52 58 63 66 67 71 82 93 92 85 77 71 68 66 63 67 75 76 71 69 70 73 79 84 86 88 93 91 85 86 93 93 87 84 81 74 69 65 61 57 53 50 47 45 44 45 48 49 50 51 52 53 53 51 51 52 56 62 68 71 75 80 81 78 84 97 98 92 93 92 87
81 84 86 87 84 84 88 95 97 95 90 85 76 59 48 49 56 61 67 72 72 73 81 89 90 86 81 77 79 81 74 70 73 75 71 66 67 75 85 88 85 85 90 91 89 92 97 96 93 91 87 81 78 74 69 64 59 55 54 51 47 49 53 53 52 52 50 51 52 51 53 56 57 59 64 70 74 78 81 83 91 98 98 96 97 92 85
84 87 88 88 87 85 86 91 97 99 98 99 96 81 61 56 62 66 70 76 78 77 80 85 88 91 91 90 93 97 92 83 75 70 67 67 69 73 79 80 79 79 81 86 90 93 94 94 95 94 90 87 84 81 79 76 69 63 61 56 52 55 58 57 57 58 56 54 54 55 55 56 56 57 61 64 68 72 78 85 89 92 93 96 98 96 93
84 87 88 89 88 87 87 91 98 100 99 99 102 97 82 72 71 73 76 81 83 82 82 87 91 93 94 93 95 98 100 94 81 67 62 64 67 72 74 73 72 72 74 80 86 87 85 84 85 87 90 91 89 87 87 87 83 76 67 58 56 60 62 59 57 58 59 57 56 56 55 53 53 56 60 64 66 68 74 82 84 87 92 96 98 99 98
83 84 85 87 88 87 87 92 98 100 100 99 100 101 97 90 84 81 82 84 86 85 85 90 93 88 83 84 89 92 96 95 83 69 63 63 66 69 71 72 72 71 71 76 81 80 78 77 79 86 95 95 91 89 89 92 95 88 72 60 63 70 70 67 64 62 60 58 58 59 60 59 59 60 63 68 70 70 75 83 87 90 94 96 98 101 98
82 84 85 86 88 87 86 91 98 100 100 100 99 99 100 98 94 91 89 89 91 89 87 92 97 90 81 84 92 96 97 96 89 77 71 72 71 69 67 69 71 71 73 77 77 74 74 74 76 86 95 96 94 94 95 97 98 86 69 67 75 78 76 74 72 70 69 67 65 65 66 66 66 66 66 69 72 74 79 83 85 91 96 95 97 98 97
84 86 86 86 88 87 85 89 97 100 99 100 100 98 97 95 95 96 96 96 96 94 92 95 98 93 83 81 89 97 99 99 97 89 80 75 72 71 72 73 73 74 76 77 74 73 73 71 71 78 87 93 98 99 97 99 96 80 70 77 83 78 73 74 73 72 74 74 74 73 70 69 70 70 70 71 72 75 81 83 83 87 93 96 96 95 96
87 89 90 89 88 86 87 92 98 101 100 99 97 95 94 93 94 98 100 99 99 98 98 98 98 95 87 79 81 90 98 101 100 96 87 79 75 76 80 83 81 78 75 76 78 77 74 71 72 77 85 95 100 97 97 103 94 71 61 73 81 76 73 73 71 71 73 74 77 78 77 77 77 75 76 77 76 75 80 84 86 88 89 92 93 92 95
90 90 91 93 90 85 87 95 99 100 100 98 95 96 97 97 98 100 100 99 100 100 100 100 98 95 88 79 74 76 82 92 100 100 93 84 78 79 85 90 91 87 82 81 82 79 73 73 76 78 84 94 100 99 100 97 80 58 56 73 84 82 78 73 69 69 71 72 76 80 80 81 82 81 81 80 78 77 78 81 86 90 91 90 90 91 96
89 87 89 96 94 87 86 94 99 100 100 99 97 98 100 99 99 99 99 100 101 100 99 101 100 95 88 84 84 80 77 85 98 101 94 86 82 84 90 94 96 94 90 87 85 82 79 79 82 82 82 87 96 101 92 72 56 55 66 75 77 78 80 77 71 71 72 73 76 80 82 83 82 81 81 81 79 79 81 82 84 88 91 92 91 91 97
82 83 88 94 93 87 88 95 100 100 100 99 97 97 98 100 99 98 99 100 100 100 100 100 100 95 88 87 94 95 91 93 97 97 94 92 89 90 95 97 98 98 93 87 87 87 83 82 87 90 87 89 97 96 74 51 52 65 70 67 67 72 80 83 79 76 75 75 74 76 79 81 80 79 80 81 80 80 81 84 85 86 89 93 94 91 94
82 87 91 91 89 89 94 99 101 100 100 99 97 96 99 101 100 99 100 100 99 101 101 98 98 97 89 83 88 95 97 99 99 96 95 97 95 95 97 99 98 97 92 90 93 90 81 81 90 94 93 96 94 75 51 45 58 68 69 73 81 85 86 87 85 79 76 76 75 76 77 79 80 80 79 80 80 79 80 82 85 86 88 93 96 95 95
91 95 97 96 93 94 98 100 99 97 96 95 95 98 100 100 99 99 99 100 99 100 99 98 98 97 89 82 86 93 96 99 100 98 98 99 99 98 100 99 97 94 94 97 99 90 78 82 93 96 92 87 72 52 45 55 63 64 69 82 92 93 92 92 89 84 82 80 78 77 78 80 81 81 81 82 83 83 83 84 85 87 89 90 92 96 99
98 98 99 100 99 98 101 101 94 90 92 94 97 100 100 99 100 100 99 100 100 99 100 101 99 95 89 86 90 96 98 97 100 100 99 99 98 97 99 100 99 97 97 95 89 82 82 91 98 94 81 68 54 49 56 63 64 68 81 90 92 92 94 94 91 89 89 87 84 81 80 81 82 82 83 84 84 84 85 86 87 90 92 93 93 95 97
101 100 99 100 100 99 98 93 85 86 94 99 100 100 100 99 101 100 99 100 100 98 99 100 97 94 93 91 93 98 98 96 99 101 99 98 99 100 100 100 97 97 98 93 86 85 91 96 95 84 69 56 52 55 61 62 62 69 82 90 91 92 94 93 92 91 90 89 87 85 83 82 82 82 83 84 83 84 85 86 89 92 94 95 97 97 96
100 100 99 100 101 98 93 87 85 91 99 100 99 100 100 100 100 99 98 100 100 98 98 97 92 91 92 90 91 97 99 97 99 100 99 98 99 98 99 98 95 95 97 95 89 89 93 95 94 85 68 54 52 57 62 67 70 73 80 88 91 90 90 91 91 90 88 88 88 87 86 85 84 84 85 86 86 86 86 86 88 91 93 96 98 99 98
100 100 99 99 99 95 91 91 95 99 100 99 100 100 100 100 100 99 98 99 100 98 97 91 84 85 90 90 91 97 100 98 97 98 99 99 97 96 99 99 96 96 98 94 88 87 87 90 93 84 65 55 59 66 69 75 79 81 85 89 88 85 86 87 86 85 85 84 84 83 83 82 82 82 83 84 85 86 88 87 85 84 89 96 98 95 94
96 97 98 97 95 92 92 96 100 100 99 99 100 100 99 99 100 99 99 100 100 98 95 90 84 84 88 89 90 94 98 98 98 99 100 99 98 99 100 97 94 96 97 92 88 85 82 84 88 77 60 57 68 73 72 76 79 79 81 82 80 80 81 81 81 81 80 78 79 79 78 78 80 82 83 84 85 88 90 89 87 86 89 95 98 95 94
93 90 92 93 94 95 97 99 100 99 99 100 100 99 100 100 99 99 99 98 98 97 93 86 82 81 83 86 90 94 98 100 100 99 99 99 100 100 99 98 99 99 93 86 84 83 82 84 81 65 52 57 70 72 71 74 75 75 76 77 75 75 75 75 77 80 78 77 78 79 79 81 84 85 87 89 91 93 93 90 89 90 92 94 98 99 97
97 95 95 95 97 99 100 100 99 99 100 100 99 99 101 100 97 97 96 94 95 97 92 83 80 83 86 91 95 98 98 99 100 99 99 100 100 99 99 100 101 96 89 85 85 85 84 82 71 55 52 65 75 74 73 73 71 71 74 75 74 73 74 75 79 84 85 84 82 80 82 86 88 89 91 93 94 96 96 92 90 93 95 96 99 101 99
100 100 99 98 99 99 99 99 99 100 100 99 98 98 97 91 85 85 87 86 85 86 84 78 76 79 83 89 95 98 97 98 99 100 100 100 99 99 101 100 96 90 89 92 93 91 86 75 59 52 59 71 74 72 72 72 71 72 75 74 74 75 75 74 77 84 88 87 84 82 83 86 90 94 96 96 96 98 97 94 94 96 95 93 94 96 98
99 100 100 100 100 100 99 99 99 99 99 98 92 85 80 75 71 74 81 83 79 76 75 74 74 77 82 88 95 98 98 99 100 99 99 100 100 100 99 97 94 92 94 95 95 93 84 65 53 57 69 73 72 72 73 71 71 73 74 73 74 75 75 76 81 86 88 87 88 89 90 91 93 96 98 97 98 100 98 95 95 95 92 88 88 91 96
99 99 100 99 97 96 96 96 95 91 87 82 75 69 69 72 75 80 85 85 78 73 72 73 75 79 85 91 95 97 97 99 99 99 99 100 100 98 97 97 97 96 95 93 91 85 70 54 53 66 75 72 69 69 68 68 70 73 72 72 73 74 76 81 85 89 91 92 93 95 97 97 96 97 98 98 99 98 93 91 91 90 86 84 83 85 90
99 99 100 100 97 95 92 90 86 79 71 66 64 66 72 78 83 90 94 90 81 76 76 77 80 84 89 93 95 97 98 99 100 99 99 99 100 99 98 99 98 96 94 90 83 72 59 54 60 69 72 68 67 66 65 66 69 70 71 73 75 77 80 86 89 93 97 98 97 97 99 98 96 96 97 98 98 95 87 82 79 74 68 67 70 75 79
99 99 98 97 95 92 87 82 79 75 71 69 70 73 77 82 87 94 98 97 91 84 80 80 84 90 95 97 98 98 98 100 100 99 99 100 100 99 100 100 98 93 87 79 68 58 55 60 68 71 70 69 69 68 67 68 69 69 71 75 79 83 88 92 95 97 99 99 99 100 99 96 94 94 95 97 100 99 95 92 90 84 74 67 66 72 79
100 99 95 92 91 89 84 80 79 78 75 74 76 81 84 87 92 96 98 99 97 91 84 83 87 93 97 99 100 99 99 100 100 99 100 100 100 99 100 99 93 81 70 64 60 59 61 67 71 72 71 71 71 71 71 72 72 72 74 77 82 88 92 94 96 99 100 99 99 99 96 95 97 98 98 99 99 98 97 98 99 97 92 82 73 75 84
100 100 95 91 90 89 86 83 83 82 80 80 87 93 94 94 97 100 99 97 97 94 90 91 95 97 98 99 100 99 99 100 99 99 100 100 99 99 99 92 78 67 61 60 62 65 69 72 75 74 74 73 73 73 73 74 74 76 79 82 87 92 96 97 97 98 98 99 99 97 94 94 95 96 96 97 97 98 100 99 97 97 98 94 86 86 92
100 100 97 93 90 88 85 81 79 79 78 80 88 96 98 98 99 100 98 96 96 94 91 91 95 99 100 100 100 99 99 98 97 99 100 99 96 94 89 78 66 61 62 64 66 70 75 79 79 77 76 77 77 76 76 77 80 82 84 86 90 93 96 98 99 98 98 99 99 98 94 90 88 88 90 90 89 89 91 92 92 96 98 93 88 90 97
100 98 95 93 90 89 88 86 85 85 84 83 86 92 96 98 99 99 98 96 93 90 87 87 91 94 95 95 95 97 99 98 96 97 98 96 88 81 74 68 65 65 67 69 71 76 81 84 84 81 79 79 79 79 80 82 84 85 86 90 94 97 98 98 99 100 99 97 97 98 99 98 96 94 89 80 73 73 77 82 89 97 98 91 86 89 96
Wind_Speed
20 20 19 19 19 19 18 18 17 17 17 17 17 18 18 13 9 11 9 5 3 6 8 5 1 3 4 4 7 7 4 3 3 5 7 5 2 2 2 2 3 4 4 3 3 4 5 4 3 3 3 4 5 7 13 14 9 5 5 7 9 6 4 6 6 2 2 4 3 3 3 3 1 2 4 4 4 5 5 5 6 8 8 7 8 5 3
21 21 20 20 19 19 18 17 17 17 16 17 16 17 18 13 7 6 7 6 5 7 6 4 3 9 11 5 6 6 3 1 1 1 7 5 1 4 4 3 2 2 3 4 4 5 4 3 4 3 2 7 12 13 16 14 7 4 6 7 6 4 3 6 7 4 4 5 4 3 2 2 0 1 3 4 3 5 5 5 5 6 6 6 8 5 2
22 21 20 20 19 19 18 17 17 16 16 16 16 17 17 12 7 7 9 10 9 8 5 2 4 11 12 5 3 4 5 10 6 1 1 4 3 4 4 3 2 3 5 6 5 5 5 4 4 4 3 6 11 14 15 10 6 7 8 6 5 5 5 7 7 5 4 2 3 4 4 3 2 1 2 3 3 4 5 6 6 6 6 8 8 7 9
23 22 21 19 20 19 17 17 16 15 15 15 15 16 14 8 5 3 7 6 6 6 7 5 4 8 7 4 3 4 6 12 9 4 2 4 4 2 2 2 3 4 5 4 3 4 5 5 4 5 5 4 7 14 17 13 9 10 9 7 7 7 7 7 8 9 8 6 6 7 7 7 5 4 4 3 3 4 5 5 5 6 8 8 5 7 13
23 22 21 19 19 19 17 16 15 15 15 14 14 15 11 6 4 8 8 2 3 4 6 3 4 8 7 6 6 5 5 6 9 11 8 3 2 1 1 2 3 5 4 3 4 4 5 6 5 6 5 5 8 13 16 13 9 8 8 8 6 7 9 9 9 11 11 9 10 9 8 9 8 7 6 5 5 5 5 5 5 6 7 7 6 9 12
22 21 20 19 19 18 17 16 15 14 14 13 13 13 9 6 9 12 8 2 2 8 10 7 8 9 7 8 8 6 4 4 8 11 6 1 2 1 0 1 3 4 4 3 4 4 5 5 5 5 5 6 8 9 9 10 7 5 6 6 5 7 10 10 10 12 12 11 11 10 10 10 9 8 8 7 7 6 6 7 6 6 6 8 10 11 11
22 20 19 19 18 18 16 15 14 14 13 12 12 10 8 5 5 7 6 2 3 11 14 11 11 7 4 5 7 4 3 5 7 6 3 2 1 2 4 5 5 5 4 4 5 5 6 6 5 6 6 6 6 5 5 9 9 6 5 5 6 7 8 9 10 13 14 13 11 11 11 11 11 11 10 9 8 8 8 7 7 7 8 9 10 10 9
21 19 18 18 17 17 16 15 14 13 12 12 11 11 10 6 5 9 9 3 4 10 11 9 8 7 6 5 5 4 4 5 5 3 3 4 3 3 5 5 5 5 5 6 7 5 6 7 7 6 6 6 5 5 5 7 8 6 5 7 7 7 8 9 11 14 15 12 11 11 11 11 12 13 12 11 11 11 10 9 8 8 8 7 8 8 8
20 18 17 17 16 16 16 15 14 13 12 12 12 12 11 7 7 12 9 3 4 8 9 8 7 8 8 6 7 7 5 7 6 4 4 4 3 4 6 5 5 6 5 6 8 7 7 8 8 8 7 6 5 6 7 7 6 5 7 8 8 9 11 11 12 14 14 11 9 9 10 12 14 15 15 16 15 13 11 9 7 7 7 7 7 7 7
18 16 15 15 15 15 16 15 15 13 12 12 12 13 13 10 10 11 7 4 5 6 7 9 9 9 9 8 9 8 6 7 6 4 3 3 2 4 7 7 5 5 5 5 7 9 9 8 7 9 9 8 8 9 10 9 9 8 9 9 8 9 11 11 11 13 14 12 9 9 10 11 11 11 12 12 14 14 11 10 8 7 9 8 6 6 7
16 15 15 15 16 16 16 16 16 14 13 13 12 13 13 12 10 8 6 5 5 5 7 9 9 12 11 9 9 11 11 8 5 3 3 3 3 4 6 4 4 5 7 8 9 8 8 10 11 10 11 12 14 13 11 12 12 11 11 10 9 9 11 11 12 14 15 14 12 12 10 8 7 7 7 6 9 11 10 10 9 8 9 9 7 5 8
16 17 17 18 18 18 18 18 17 16 14 14 14 13 12 11 10 7 6 6 6 6 8 9 12 15 13 10 11 13 12 9 6 6 7 6 5 4 3 1 5 5 3 6 10 12 10 11 12 10 10 12 13 15 15 15 13 12 12 11 10 10 11 12 12 14 15 16 14 11 8 7 9 12 10 7 7 9 9 9 9 8 7 8 7 5 7
20 20 20 20 21 21 20 19 19 17 16 15 14 13 11 11 10 8 8 8 6 5 9 11 13 15 14 12 12 14 13 9 8 10 9 7 7 6 5 3 4 2 4 6 10 12 8 6 8 9 10 10 10 12 14 14 14 14 14 13 12 12 12 12 13 13 15 14 11 9 9 13 15 14 12 10 8 7 7 8 8 7 8 9 7 5 6
25 24 23 22 23 22 20 19 19 18 17 16 15 13 12 12 11 10 11 10 7 7 10 9 9 12 14 13 10 12 12 10 10 10 9 9 9 7 6 5 2 4 7 7 7 5 2 3 6 8 8 8 9 11 12 13 14 14 14 14 13 12 12 12 13 12 12 13 13 13 15 14 11 9 8 8 6 5 7 8 7 6 9 9 7 5 6
25 24 22 21 22 21 19 18 19 18 17 16 15 14 13 13 12 11 12 13 11 8 9 9 10 11 12 12 10 9 9 9 9 8 8 11 11 8 7 5 3 6 11 10 6 3 3 7 9 8 8 8 9 9 7 7 10 12 13 13 13 13 13 12 12 11 10 13 13 13 12 9 5 6 8 8 7 7 8 10 9 7 8 8 5 5 6
24 24 23 21 20 20 19 18 18 18 18 17 16 15 14 13 13 13 13 14 14 9 8 8 12 14 13 11 12 12 10 9 9 7 7 11 11 8 6 6 4 6 9 6 4 4 6 8 8 9 10 10 9 9 6 5 7 8 9 11 12 14 13 11 13 15 13 14 14 12 11 10 9 11 12 11 11 9 8 10 9 8 9 8 5 5 6
24 25 24 22 21 20 19 19 19 19 19 17 16 16 15 13 14 14 14 15 16 14 11 9 11 13 14 13 13 13 11 8 8 9 9 9 9 7 6 8 8 11 7 1 3 4 7 8 8 10 11 10 9 8 6 7 7 7 9 10 10 11 11 11 14 16 15 15 16 15 15 13 12 13 15 14 12 9 7 7 6 6 6 7 5 5 7
23 24 25 25 23 21 20 20 20 20 19 18 17 17 16 15 16 17 17 17 18 15 10 8 9 8 10 14 15 14 13 10 8 9 9 8 7 7 7 8 9 11 6 1 1 6 9 9 10 11 12 10 8 7 8 8 8 9 11 10 9 10 12 13 14 16 16 16 17 17 17 15 12 13 15 15 13 10 6 5 5 5 6 7 5 5 6
23 24 25 25 25 23 22 21 21 21 20 19 19 19 18 18 19 20 20 20 21 17 9 6 9 9 10 15 18 15 14 13 11 10 9 8 7 8 8 9 9 9 8 4 4 8 10 10 10 11 12 11 8 9 10 10 10 10 11 11 12 12 13 13 15 16 15 15 16 17 16 13 10 11 14 16 13 8 5 6 8 10 8 7 7 6 6
25 24 25 26 26 25 24 22 22 22 22 21 21 21 20 20 21 22 23 22 23 21 12 11 13 13 10 13 15 14 12 11 10 11 10 9 9 10 9 10 9 8 8 7 7 8 8 9 10 10 11 12 10 9 10 11 12 12 12 13 14 13 12 14 16 17 16 15 15 14 11 11 11 10 11 13 9 6 8 8 9 10 7 5 7 8 9
26 25 25 26 28 28 26 24 23 23 22 22 22 22 21 22 23 23 24 23 24 23 17 17 19 16 12 12 14 16 15 11 10 10 10 11 13 13 12 11 10 9 7 8 8 7 7 8 10 10 12 12 11 11 11 12 13 14 13 14 15 14 14 15 14 13 13 14 14 11 9 12 14 11 10 10 9 12 15 13 11 10 7 6 7 9 11
28 26 26 26 27 28 29 27 25 24 23 23 23 23 23 23 24 24 24 24 26 25 21 20 20 17 15 16 15 15 16 14 12 13 13 14 17 18 15 12 13 13 12 11 9 7 8 9 9 11 13 12 12 13 13 12 13 13 11 12 14 13 13 16 16 14 12 12 12 10 12 16 17 16 15 15 14 16 18 17 14 13 10 7 7 9 11
29 28 27 26 25 25 28 29 29 28 25 24 23 24 25 25 25 26 26 25 26 26 24 23 23 21 18 17 16 17 19 18 17 17 17 17 20 21 18 16 16 17 16 16 14 11 10 11 10 10 13 13 12 14 14 14 15 14 12 13 14 13 14 17 19 18 18 20 19 15 14 17 16 15 16 17 16 15 17 19 18 12 8 8 9 9 10
30 29 28 26 25 24 25 27 30 31 30 28 26 26 28 27 26 28 29 28 28 28 25 22 22 21 17 15 16 19 22 21 20 20 19 17 18 19 18 18 20 18 18 20 21 15 13 14 12 11 14 14 12 13 14 13 14 14 14 15 15 16 17 17 17 17 18 20 19 15 14 16 16 15 16 16 16 16 18 21 18 11 8 9 10 10 10
30 29 28 27 26 25 24 25 27 28 29 30 31 32 32 30 29 32 33 31 30 29 26 23 21 18 15 13 13 15 17 19 20 20 19 17 15 16 17 19 20 19 18 21 21 16 13 12 10 11 14 13 12 13 14 14 14 13 14 15 14 16 19 19 17 18 19 19 17 16 17 17 17 18 18 16 16 18 19 17 13 10 9 9 10 12 12
30 28 28 27 26 26 26 25 26 26 27 29 31 33 34 34 33 34 34 33 31 29 29 27 21 14 12 12 11 10 11 14 17 17 16 15 13 15 17 20 21 20 19 19 19 18 18 15 11 12 13 11 10 13 14 15 17 18 18 18 16 16 19 18 16 19 22 21 19 18 18 17 17 18 19 17 16 17 18 16 13 12 11 10 11 13 11
30 28 27 27 27 26 26 26 26 28 29 30 31 32 34 36 38 37 35 34 30 26 24 22 17 15 16 15 13 11 11 13 15 15 14 13 13 14 16 18 19 19 18 19 20 21 21 19 17 15 13 12 15 18 17 16 17 21 24 24 21 19 19 17 16 19 20 18 18 18 18 17 14 13 15 16 17 18 19 18 16 14 13 12 12 12 10
29 28 27 27 27 26 26 27 27 27 28 29 31 31 32 35 38 39 38 35 31 27 25 22 19 20 20 17 15 14 13 14 16 16 14 14 13 13 14 16 17 18 18 18 20 21 20 20 18 14 12 14 18 20 18 16 16 20 23 21 17 18 18 16 18 20 19 17 17 18 19 18 16 14 13 14 16 18 19 18 16 15 14 13 12 12 11
30 29 29 28 27 27 27 28 28 28 28 28 28 29 31 34 36 38 38 36 32 30 28 27 24 22 20 17 15 15 15 16 17 17 15 14 14 14 15 16 18 18 18 19 20 20 20 20 18 15 14 16 17 18 16 15 18 22 22 18 13 14 15 16 18 20 20 19 19 19 19 19 18 18 17 16 17 19 20 20 18 16 14 12 13 14 13
30 30 30 29 28 29 29 29 29 29 29 27 27 29 31 32 32 33 35 35 32 29 27 27 27 25 23 20 17 13 12 15 18 18 16 15 15 16 16 17 18 18 18 18 19 20 21 21 20 19 18 16 17 20 18 16 20 24 22 17 14 15 16 17 18 19 20 19 19 21 22 20 19 20 21 20 20 20 20 21 20 18 15 13 13 15 14
31 31 31 30 29 30 30 30 30 31 30 29 30 31 31 29 27 27 29 30 30 29 27 28 28 27 26 25 21 15 13 14 15 17 17 17 18 18 17 16 17 18 18 18 20 21 21 21 21 21 18 15 17 20 19 20 25 25 19 14 15 15 16 17 18 18 19 18 18 19 19 18 18 18 17 16 16 17 19 19 18 17 18 16 14 14 14
31 31 32 31 31 31 30 30 31 31 30 30 31 32 30 28 25 24 25 25 26 26 27 28 28 26 24 24 22 20 18 16 16 17 19 20 20 19 17 15 15 17 19 19 21 22 22 21 21 21 18 15 17 20 23 27 27 20 11 9 15 14 13 15 16 16 18 18 17 18 17 15 15 15 15 15 15 16 18 18 16 16 18 19 18 16 15
30 30 31 31 32 32 31 31 32 31 29 31 33 33 32 30 27 25 24 23 24 25 25 28 29 27 21 16 15 17 18 19 19 19 20 20 19 17 16 15 15 16 19 21 21 22 22 21 21 21 18 15 17 23 28 29 23 14 7 11 16 14 13 14 16 17 17 17 17 18 17 15 14 14 15 16 15 15 15 17 16 16 18 19 19 17 15
28 28 29 30 32 32 31 31 32 33 33 35 35 33 31 31 30 27 25 24 23 24 26 28 30 29 23 17 13 13 15 17 18 17 16 16 16 15 14 14 14 17 20 22 21 22 23 21 20 20 18 15 18 24 23 16 10 6 8 12 15 14 14 15 16 17 17 17 18 18 18 16 16 16 16 16 16 16 16 15 14 15 16 18 19 18 15
28 28 29 30 31 31 31 32 35 36 37 37 35 32 31 32 31 28 26 24 23 26 29 30 29 28 26 22 19 16 15 15 15 14 13 13 14 14 12 14 17 20 21 20 20 22 22 19 16 17 17 16 21 23 17 10 6 9 12 12 13 14 14 15 16 16 16 17 17 18 18 18 17 18 18 17 17 16 17 16 16 16 16 17 18 18 16
28 27 28 29 30 31 32 35 38 38 35 33 32 32 32 32 30 27 25 23 25 29 30 30 31 30 28 25 21 18 17 16 15 15 15 15 15 14 13 16 20 21 19 19 22 24 21 17 16 18 19 21 23 22 19 17 18 18 15 14 14 14 14 16 17 16 16 17 18 18 19 20 19 18 18 18 17 16 16 17 17 17 17 17 18 18 16
27 26 27 29 31 34 36 39 39 34 30 30 31 32 32 30 27 24 23 23 26 29 30 31 33 31 28 25 22 19 19 17 15 15 17 17 17 16 16 18 19 18 19 22 24 21 16 13 17 22 24 24 23 22 20 22 23 19 15 14 15 15 16 17 18 18 18 18 19 19 20 21 20 20 19 18 18 18 18 19 19 19 19 18 18 19 18
27 28 30 32 35 37 38 37 34 30 28 30 30 29 28 26 25 25 27 28 29 30 30 33 33 31 29 28 25 20 17 15 13 15 17 17 16 16 18 19 18 17 19 21 20 16 13 15 20 25 27 26 21 16 14 15 16 15 15 15 17 18 19 18 18 18 19 18 18 19 19 20 21 21 20 20 21 21 22 23 23 22 21 20 20 20 19
30 31 33 35 37 37 35 32 29 28 29 30 29 27 27 27 27 29 32 34 35 35 35 37 36 33 31 31 28 22 18 16 16 18 19 17 16 16 17 17 15 16 19 18 13 11 15 20 23 26 28 25 17 10 7 11 14 14 14 16 17 18 18 18 17 18 19 19 20 20 19 20 21 20 19 22 22 20 19 20 20 20 21 21 22 21 19
33 34 36 36 36 35 33 30 29 29 29 28 27 27 28 30 32 33 34 35 38 39 39 38 38 35 33 32 31 27 22 20 20 19 19 18 18 17 16 15 14 15 19 17 12 12 16 20 22 25 27 24 17 12 12 15 16 13 12 13 14 15 16 18 18 17 18 19 20 19 18 19 20 19 20 21 21 18 17 18 19 21 22 21 20 21 20
34 35 36 35 35 34 33 31 31 31 29 28 29 30 32 33 34 34 34 35 37 40 40 38 38 37 36 34 33 30 25 22 21 20 20 20 19 18 18 17 14 15 18 16 12 12 16 20 24 26 26 22 17 14 14 15 14 13 13 13 13 13 15 16 17 17 18 18 17 17 17 18 18 19 20 20 20 19 19 19 19 20 22 22 21 20 20
34 34 34 34 35 35 35 35 35 33 31 31 32 34 34 35 35 35 36 36 36 37 39 39 38 36 34 33 33 31 27 24 23 23 22 21 21 22 22 20 18 19 22 20 14 13 17 23 27 27 25 20 15 12 12 12 14 15 15 15 15 16 17 16 17 20 22 20 17 17 17 18 19 20 21 21 21 19 18 18 17 18 21 22 21 20 20
35 34 34 36 38 38 37 36 36 34 33 34 36 35 35 36 37 37 39 40 37 35 36 37 35 33 33 33 33 33 30 27 26 25 23 23 24 24 23 24 25 26 24 21 18 18 22 27 29 28 25 19 15 13 12 13 14 14 14 16 17 18 18 17 17 17 17 16 16 17 17 18 19 19 19 19 18 15 14 15 17 17 17 18 19 21 22
37 36 37 39 41 40 36 35 36 36 36 38 40 39 39 41 42 42 42 42 40 38 37 35 32 32 33 34 32 32 32 30 29 27 27 27 26 24 24 27 31 29 24 19 18 20 24 27 25 21 17 16 16 13 13 13 14 13 13 14 15 15 17 18 18 16 14 14 15 18 19 20 18 16 14 14 14 13 13 15 17 18 18 17 19 22 23
39 40 41 41 42 41 38 35 37 41 43 43 43 43 42 43 45 46 44 41 37 36 37 35 32 30 32 33 32 31 30 29 29 29 29 28 27 27 28 27 25 21 19 19 19 21 25 25 19 14 13 14 12 10 12 14 14 15 15 15 15 16 17 18 17 14 12 13 14 15 15 15 14 13 13 13 14 14 14 14 17 20 21 20 20 22 23
40 43 45 46 46 46 43 40 41 45 46 44 43 44 44 42 39 38 37 36 35 34 34 33 31 31 31 32 32 31 30 29 29 29 29 27 26 28 29 26 21 18 19 21 23 27 29 25 18 13 13 13 10 11 14 15 15 15 16 15 15 15 16 16 15 14 12 13 13 12 11 11 12 13 12 12 14 16 16 14 15 18 21 22 22 22 22
41 43 46 48 48 49 50 49 47 45 43 41 40 41 43 40 33 27 26 28 30 31 31 30 29 29 31 31 31 30 30 29 28 28 30 28 25 22 20 20 21 23 24 26 30 33 31 22 14 11 13 13 13 14 16 15 15 16 16 15 15 15 16 16 15 13 12 12 13 12 12 13 14 13 11 10 12 14 15 15 17 20 22 23 23 23 23
43 43 46 49 51 51 51 52 49 44 42 41 39 38 38 37 31 25 23 24 23 24 27 29 29 28 29 30 30 30 29 28 27 27 28 26 22 18 16 17 22 27 29 30 32 31 24 15 10 11 14 15 15 15 15 16 17 17 17 16 16 16 15 14 13 13 13 13 13 12 12 13 14 13 12 11 11 11 12 13 16 19 21 22 22 22 22
44 44 46 49 52 51 49 47 44 43 43 42 37 32 31 31 27 25 25 26 23 21 24 27 28 28 29 29 29 30 30 29 27 26 26 26 25 22 19 20 25 31 33 31 28 24 18 12 12 15 16 16 14 13 14 16 16 16 16 17 18 16 14 12 13 14 14 14 14 14 14 13 13 12 12 12 12 12 13 14 16 17 18 20 22 22 21
46 46 48 50 52 51 48 45 43 43 44 41 33 26 24 24 23 24 27 27 25 23 24 26 26 27 29 29 31 33 33 32 30 27 28 31 33 30 27 27 32 34 33 30 27 22 16 12 12 15 16 17 16 16 16 16 16 16 16 16 14 12 11 11 12 13 14 14 15 16 16 16 15 14 14 15 15 14 14 16 17 17 18 21 22 22 22
49 50 52 52 52 50 48 47 46 44 44 41 34 26 22 20 21 25 29 30 27 26 28 29 28 28 29 31 33 33 32 33 35 34 33 33 35 36 35 36 36 35 32 30 28 22 16 13 15 17 17 17 18 19 19 18 17 17 17 16 13 12 12 12 12 12 12 12 13 14 15 17 17 17 17 18 18 18 18 19 19 19 20 23 25 24 24
52 53 52 51 49 48 48 48 46 43 40 39 35 29 24 22 23 27 31 32 31 31 32 32 31 32 34 35 35 32 30 32 37 40 40 39 38 38 38 38 36 33 31 31 29 22 16 16 21 23 21 19 19 20 21 19 18 16 14 14 13 13 13 13 12 11 11 12 12 13 14 15 16 16 18 19 21 22 23 23 21 20 22 25 27 25 25
Wind_Direction
293 295 298 301 305 310 313 315 319 321 326 326 328 337 342 342 322 298 306 338 25 44 25 357 318 291 292 267 272 283 281 282 25 4 308 293 300 290 286 287 265 238 242 292 319 286 275 274 274 281 286 287 265 269 294 298 281 276 293 291 296 309 311 305 309 299 205 194 226 281 312 321 52 72 23 12 13 5 343 326 328 326 328 333 320 312 94
290 293 295 297 301 307 309 312 316 318 322 325 326 333 341 346 344 322 335 3 22 15 352 350 347 298 291 288 277 281 300 295 150 291 302 311 318 297 290 239 245 280 254 275 300 285 270 284 296 288 270 282 282 286 295 292 277 272 264 261 288 309 313 320 317 284 239 238 250 258 316 349 73 90 4 2 0 344 330 320 309 308 331 341 319 312 4
287 290 291 294 298 302 306 309 311 314 320 323 324 334 341 353 22 5 335 339 5 3 317 313 356 314 304 320 305 282 310 317 316 124 296 295 258 267 274 226 241 285 261 259 268 259 255 267 287 289 289 293 287 291 306 302 258 255 258 250 272 285 294 313 313 305 302 295 292 303 326 344 337 314 330 334 335 334 330 325 311 307 333 333 313 314 329
283 285 287 290 294 299 302 305 307 310 316 319 323 334 342 1 36 346 295 318 16 2 311 294 308 308 313 338 315 295 317 318 324 14 6 269 238 226 240 242 269 270 263 265 255 246 251 254 281 299 285 285 290 299 316 317 269 254 265 260 263 278 294 301 293 292 298 293 290 302 310 309 300 287 287 292 301 315 320 313 307 316 325 319 322 336 325
280 281 284 287 290 295 297 300 303 305 310 316 321 330 345 3 331 286 269 296 39 315 281 256 270 286 287 285 281 286 319 317 305 316 322 269 235 276 190 198 237 260 276 278 249 241 242 248 276 296 280 274 288 300 316 318 285 262 271 268 272 291 293 291 290 289 291 291 292 298 298 292 286 279 276 271 271 289 299 291 301 319 309 301 335 343 325
277 278 281 284 287 290 292 294 297 299 304 310 314 327 344 337 315 305 283 245 320 292 271 256 280 288 269 268 276 274 289 298 290 301 314 278 256 297 282 265 249 248 259 260 250 248 247 252 265 280 281 279 287 304 324 320 298 278 275 269 273 287 285 288 295 293 292 295 293 292 287 280 279 278 276 273 266 265 273 276 287 297 288 299 323 328 323
274 275 278 281 283 285 287 288 290 293 298 301 307 319 317 293 288 290 274 252 292 285 280 285 297 291 246 264 286 277 273 293 290 287 302 1 323 247 271 290 268 244 246 250 250 247 248 253 258 273 275 264 271 296 313 312 310 308 301 290 279 281 285 291 299 299 299 299 295 290 281 271 270 272 273 278 271 257 259 268 275 280 286 297 307 316 331
271 273 275 278 280 281 282 283 285 287 290 295 300 303 300 289 240 249 270 320 301 281 296 322 317 293 279 280 276 260 273 293 294 287 295 321 325 270 267 276 259 250 251 246 244 247 259 259 258 268 262 247 267 289 280 296 314 306 283 280 279 282 288 296 305 305 303 303 298 290 278 269 273 272 267 268 265 258 256 256 263 277 286 294 303 319 339
268 269 272 276 276 278 280 279 279 281 283 286 290 294 299 301 270 264 270 294 286 291 313 322 304 290 289 280 264 261 271 271 261 248 251 266 292 285 268 257 242 242 251 255 251 251 258 261 265 270 258 232 246 269 262 263 277 281 278 277 281 290 297 304 308 301 301 307 306 297 288 281 279 275 271 266 257 251 251 250 260 278 282 292 307 310 318
264 264 269 275 278 279 278 276 276 276 276 277 280 288 297 304 299 284 266 253 281 303 305 297 291 280 265 256 259 261 253 249 257 274 260 240 274 268 247 236 230 241 265 269 253 247 245 246 259 264 260 258 265 279 290 283 270 272 278 277 280 285 291 301 303 297 299 305 302 300 303 296 283 276 278 266 247 244 251 254 264 280 278 277 291 306 319
261 263 268 276 281 282 279 277 275 271 270 271 273 281 293 307 312 301 273 264 282 293 291 287 279 274 271 265 262 262 261 259 270 293 266 259 299 273 243 226 199 220 249 246 239 250 249 244 248 240 235 247 250 250 260 265 261 264 267 269 274 276 281 290 294 293 295 300 302 296 291 289 285 288 289 252 231 244 256 256 260 271 269 260 262 301 325
262 268 273 276 278 280 280 278 274 268 264 263 267 276 291 300 301 297 279 265 264 282 290 279 270 275 282 276 254 248 256 266 270 262 253 255 271 273 275 237 156 170 290 286 263 266 262 254 260 251 240 248 246 235 236 243 249 254 257 261 267 273 280 283 285 286 288 297 305 292 274 288 302 301 300 277 245 246 252 260 268 264 257 258 258 282 312
264 269 274 277 276 274 273 272 268 264 260 258 262 270 283 291 289 284 274 260 250 267 275 279 285 283 279 277 261 246 246 252 257 263 264 263 265 271 279 260 178 184 334 319 278 272 270 273 279 269 260 266 266 257 256 261 261 253 247 249 256 264 274 279 282 285 287 293 295 282 292 309 302 291 290 283 268 254 251 270 281 259 245 255 258 265 296
267 269 271 273 272 269 265 264 263 260 257 256 258 262 271 281 281 278 274 265 251 245 252 272 296 282 271 276 266 247 247 249 252 261 270 273 273 269 265 264 265 282 282 269 262 275 324 312 288 268 250 244 252 259 260 261 260 253 244 243 248 256 263 272 278 282 285 288 286 286 297 298 278 266 279 281 271 252 250 268 279 262 250 256 261 271 297
267 267 266 267 267 265 261 259 258 257 255 253 254 258 266 275 278 276 275 272 267 249 237 256 271 264 270 288 283 260 252 252 255 262 273 282 285 282 269 260 254 275 273 260 242 231 283 286 281 268 246 226 232 249 251 251 254 249 241 239 242 249 253 259 270 278 285 289 290 292 295 289 273 282 294 297 286 264 264 283 286 255 236 236 243 274 304
264 262 261 263 265 263 261 259 256 256 254 251 251 255 261 270 275 276 274 272 270 247 211 240 265 254 249 267 278 273 259 244 250 256 259 274 285 289 279 255 246 285 288 263 223 228 267 277 271 262 255 242 239 241 234 248 257 241 235 236 235 241 246 250 262 271 277 282 283 283 284 294 304 296 294 303 298 280 281 293 275 232 228 237 248 289 319
264 261 258 260 264 264 262 259 256 255 254 251 250 252 256 263 270 276 277 272 269 255 230 244 275 263 245 247 260 271 268 246 237 239 234 249 267 267 252 251 284 313 316 221 205 256 263 266 262 260 264 266 264 256 242 251 252 233 238 246 237 238 245 244 251 261 266 271 276 277 280 289 294 285 288 302 304 296 297 290 255 211 230 253 260 306 327
267 264 259 257 260 263 262 259 256 255 254 252 250 249 251 259 265 272 275 272 272 266 247 255 276 262 242 242 241 250 261 253 238 233 220 227 257 257 240 249 282 304 301 207 230 262 260 266 263 262 271 276 270 267 264 264 259 245 243 245 236 234 239 238 244 256 261 261 265 271 277 285 283 272 276 287 293 291 281 261 244 233 248 265 279 310 315
268 266 261 256 256 259 261 259 256 255 252 251 250 248 250 257 262 267 272 274 275 266 235 234 272 263 250 247 238 239 254 252 240 235 221 222 245 242 238 253 264 265 261 260 272 267 267 272 263 258 272 279 269 262 262 261 264 262 252 246 242 234 228 228 237 248 255 259 265 272 277 278 265 250 260 273 281 279 258 249 260 266 275 298 308 301 287
267 267 263 258 256 256 258 258 256 255 253 251 250 249 250 254 258 263 268 273 278 273 245 228 249 250 246 246 234 230 246 252 246 236 217 214 228 222 225 251 257 250 251 250 252 263 267 270 269 265 270 277 279 277 271 265 264 264 260 258 257 245 232 233 237 240 244 251 258 265 272 270 261 251 261 274 275 255 249 259 266 269 279 295 289 283 280
264 265 263 259 256 254 255 255 255 255 254 253 251 249 248 250 253 261 266 268 275 279 266 246 246 243 245 253 237 226 234 249 256 245 217 214 228 224 218 231 237 234 242 242 243 257 263 263 270 272 270 275 282 284 284 280 272 268 264 262 259 251 247 253 251 242 241 247 249 247 251 262 268 268 263 268 268 255 254 257 259 266 274 270 265 273 280
261 261 259 258 257 254 252 252 253 254 254 254 254 251 248 248 251 257 264 267 272 277 273 263 257 254 258 266 259 246 244 247 249 249 235 224 226 223 214 212 217 221 227 233 234 246 263 266 268 272 271 270 276 281 281 276 272 273 267 256 252 249 251 258 259 253 251 258 265 277 287 289 293 294 283 275 271 262 259 263 266 266 267 268 263 262 265
259 259 257 256 258 257 254 251 250 252 252 253 255 253 249 247 248 253 260 266 270 274 277 273 264 259 260 264 263 259 255 251 251 256 253 237 230 227 218 213 221 224 225 233 234 232 246 254 253 264 268 262 267 282 282 271 268 274 272 261 258 259 258 259 263 266 265 261 258 266 284 287 287 290 289 285 279 269 267 274 274 267 258 257 255 256 262
257 257 256 255 256 258 258 255 251 250 251 252 254 254 252 249 249 252 258 264 267 272 279 278 267 262 261 260 256 255 255 254 253 258 258 247 236 232 227 227 234 231 226 238 245 242 248 252 248 258 266 259 255 267 271 268 269 273 273 266 261 260 257 253 258 266 269 267 261 258 267 272 270 272 278 277 272 272 276 277 271 259 251 247 243 252 268
255 256 255 255 256 257 258 259 258 255 254 253 252 251 251 251 251 252 256 261 265 269 274 276 271 264 259 252 250 256 258 254 250 251 257 255 242 231 230 237 244 239 233 244 251 249 253 258 255 261 267 265 258 259 263 266 265 266 270 268 265 269 267 260 258 261 262 265 269 266 264 268 271 275 278 275 270 274 280 278 267 256 255 250 247 261 274
253 254 255 256 257 258 257 259 263 263 264 264 258 251 249 249 251 253 256 259 263 266 271 273 269 260 255 249 246 252 257 251 248 249 253 254 245 234 234 241 249 251 249 252 255 254 255 259 257 254 258 259 259 258 259 258 252 248 249 245 242 259 272 271 268 265 261 262 268 270 269 270 271 272 274 273 270 271 271 270 266 260 255 249 253 265 274
251 252 254 255 256 258 258 258 260 262 266 270 269 262 254 251 252 254 256 257 259 261 269 273 258 234 232 235 230 232 240 242 247 253 252 250 247 242 243 249 256 260 260 259 258 259 260 261 261 259 255 249 247 249 255 261 256 249 247 242 235 244 262 269 268 265 262 261 265 266 267 266 263 265 269 266 262 259 257 258 263 262 255 251 255 259 264
250 251 252 253 254 256 258 258 260 262 264 268 271 270 265 259 257 256 255 255 255 254 262 271 262 241 238 240 237 239 242 241 247 254 256 254 252 248 249 255 257 259 260 259 259 261 264 265 267 267 259 253 252 253 258 265 263 258 261 261 250 243 249 254 255 257 259 260 261 265 270 270 261 255 263 273 272 266 258 254 257 259 256 254 256 256 259
249 250 251 253 253 254 255 256 258 261 263 266 269 272 269 265 262 261 258 255 254 254 258 265 262 249 240 239 240 241 240 240 248 253 251 253 259 260 261 261 260 259 259 258 259 264 268 270 271 266 258 258 263 264 264 262 259 262 270 278 271 257 254 256 256 258 257 256 254 254 262 270 267 257 257 266 271 272 271 269 266 260 254 253 256 258 259
247 248 249 251 252 253 254 255 257 259 262 266 268 270 271 270 268 266 262 256 253 254 258 262 258 247 237 234 235 234 231 238 248 251 247 250 261 267 267 265 262 258 256 259 264 268 270 273 273 268 263 260 257 258 261 262 263 268 273 272 266 265 265 264 264 265 264 263 258 249 247 254 257 252 253 257 255 255 267 276 271 261 254 252 254 259 260
245 246 247 249 251 251 252 254 256 257 260 264 268 271 275 278 277 271 264 257 253 252 256 259 257 250 241 236 233 229 228 234 242 248 253 259 266 267 264 261 262 264 265 267 270 271 272 277 278 275 272 266 256 258 263 262 266 276 281 262 247 252 259 262 266 268 268 269 267 259 254 256 256 253 258 266 259 251 259 269 267 259 256 252 249 254 259
243 244 245 246 248 250 252 254 255 256 259 263 267 270 274 278 278 273 265 258 253 252 254 256 255 250 244 241 239 238 238 238 237 244 255 264 267 265 260 255 256 265 272 273 272 275 279 283 283 281 277 264 254 257 261 261 269 289 305 257 241 246 252 259 264 265 264 266 266 263 261 265 267 266 269 272 266 258 260 265 264 261 262 258 252 250 251
242 244 244 244 246 249 251 254 255 256 256 258 261 265 269 271 273 273 267 258 252 253 253 251 249 244 240 238 239 238 236 235 237 244 253 260 263 261 260 257 257 262 267 269 272 279 284 286 285 284 281 268 253 254 261 270 282 304 296 242 238 238 238 246 255 257 258 261 264 264 264 265 267 271 273 271 267 264 263 263 261 259 260 261 258 253 248
242 243 242 242 243 246 250 253 254 250 247 248 254 262 267 267 268 271 269 261 254 252 249 246 244 241 235 226 224 228 228 229 234 240 245 252 255 253 254 259 260 260 265 272 276 278 279 283 283 280 280 274 258 255 266 285 302 287 250 239 240 244 247 252 257 259 259 261 262 264 267 268 268 270 271 270 270 269 267 264 259 254 252 255 260 260 254
240 240 239 239 240 244 248 250 247 243 242 246 253 261 265 265 265 266 266 260 252 246 244 242 242 240 233 223 220 228 232 227 227 232 234 241 247 247 248 256 259 261 270 278 276 273 277 284 282 273 269 262 255 262 282 310 289 252 252 254 253 255 256 256 257 256 256 258 260 261 263 265 267 269 269 267 266 266 265 263 259 255 252 252 257 261 258
236 236 236 235 238 243 243 239 237 239 243 249 254 256 257 260 262 262 260 255 247 244 244 244 241 238 231 222 217 225 232 227 224 230 234 234 234 234 239 252 260 266 272 269 264 270 284 289 276 263 256 253 261 279 299 298 280 271 268 265 263 262 258 256 258 259 258 259 260 261 263 263 263 264 264 263 261 261 261 260 257 254 252 249 251 255 255
231 231 231 231 234 236 234 232 235 241 247 251 252 251 250 253 255 251 246 242 240 240 241 242 241 237 230 221 214 218 227 229 227 231 233 233 235 241 245 249 255 263 266 264 266 278 289 276 259 259 261 267 282 296 295 282 276 272 265 264 268 265 259 259 261 259 259 260 259 258 261 263 264 263 263 263 263 264 264 263 259 256 254 251 249 251 250
228 227 227 230 233 232 231 234 241 244 244 245 245 242 240 240 239 236 230 227 230 232 233 235 237 234 227 219 212 212 221 225 224 230 235 233 234 241 247 249 253 259 264 270 279 286 278 259 259 268 276 284 295 301 290 283 284 274 259 259 264 257 253 257 261 258 260 263 261 259 259 260 261 263 263 264 264 262 261 262 261 257 255 253 251 251 250
227 225 226 230 233 235 238 243 245 241 238 239 238 234 229 226 226 227 226 224 225 228 230 231 232 229 224 218 212 209 211 211 212 223 233 234 232 236 244 252 259 260 261 268 276 269 259 262 271 280 287 293 301 309 313 314 310 292 269 263 262 255 249 253 258 257 258 261 261 260 259 258 258 261 262 262 261 258 258 261 264 263 262 258 252 249 248
224 225 228 230 231 234 239 242 239 233 231 230 225 221 222 223 223 226 228 227 226 227 230 233 233 230 224 219 215 212 209 209 212 219 226 230 232 236 243 250 254 253 254 259 258 243 245 255 263 271 283 294 301 306 309 307 302 293 274 263 263 258 253 254 259 262 264 266 265 262 260 259 258 258 260 262 262 262 261 261 261 264 265 259 249 246 249
223 225 229 231 233 235 236 233 227 223 221 218 215 215 218 223 225 226 228 228 228 230 232 234 235 231 225 220 218 216 214 215 218 220 223 227 229 230 234 242 248 249 250 255 254 246 248 251 253 261 276 289 287 279 278 278 277 275 269 262 263 263 257 255 257 256 255 260 264 260 257 259 260 260 261 261 259 257 258 257 254 256 259 257 252 250 250
226 228 231 232 232 231 229 224 220 216 213 211 213 215 219 222 225 226 228 229 231 233 236 236 236 235 230 225 223 222 219 219 222 224 226 229 232 234 235 238 241 246 251 254 253 247 246 248 255 270 288 298 290 274 265 258 257 261 262 258 260 262 259 258 257 249 242 245 254 260 259 258 257 257 257 256 254 254 259 260 257 253 253 253 253 249 245
224 228 231 229 225 222 220 218 217 215 211 211 213 214 217 222 225 228 231 233 232 233 237 238 238 236 234 229 227 227 226 225 227 229 229 231 235 238 239 236 237 245 254 259 256 249 243 247 261 280 295 295 283 273 265 256 251 251 250 248 250 254 255 257 260 256 249 250 260 263 259 254 252 252 253 253 255 259 262 261 259 254 249 244 243 242 244
221 222 223 221 217 214 214 213 214 214 212 211 212 213 217 224 229 231 233 234 234 234 236 238 238 236 233 230 228 228 229 230 232 232 231 233 235 236 236 238 242 249 255 256 254 251 250 256 272 289 291 274 262 256 252 252 253 253 252 251 252 254 257 258 260 261 260 260 259 255 251 249 250 251 254 256 259 261 259 253 251 251 249 246 245 248 250
220 217 214 209 207 208 210 210 213 216 217 217 220 224 228 233 236 236 235 237 239 240 239 239 238 239 237 233 230 229 230 231 230 229 228 229 231 232 235 241 247 250 251 249 248 248 252 265 285 296 280 268 265 256 249 252 254 255 257 258 255 255 257 258 257 258 259 259 257 255 253 252 251 251 254 256 258 259 259 254 250 252 257 261 262 261 258
220 217 212 207 206 209 212 213 215 220 223 227 233 238 238 238 238 239 239 240 242 243 243 240 239 239 237 233 230 230 229 229 229 229 227 226 229 236 241 243 244 243 240 240 242 248 258 274 291 287 269 266 269 261 257 257 253 250 252 254 253 254 257 256 254 253 249 245 246 249 251 251 252 252 254 256 256 256 258 260 259 260 264 269 271 268 264
219 218 214 210 209 213 217 220 223 228 233 238 242 242 239 237 236 238 243 245 244 244 244 243 241 241 239 235 232 230 229 228 230 231 228 226 229 237 240 238 238 239 238 238 244 253 265 280 288 274 259 255 251 249 251 252 252 254 255 252 251 255 257 254 251 248 242 239 243 247 248 249 251 252 254 259 261 260 262 266 268 269 270 272 273 270 266
220 218 214 213 215 219 223 227 230 233 236 240 241 241 239 237 233 231 237 244 244 240 239 239 236 234 233 232 230 229 227 226 227 229 226 223 224 225 223 224 233 240 242 245 253 263 275 283 276 263 257 250 243 241 241 238 242 251 255 253 250 252 253 252 248 243 240 241 244 247 251 255 257 258 260 262 264 268 271 272 271 272 274 275 275 271 268
224 222 220 220 223 226 230 233 235 236 237 238 240 240 238 235 229 226 232 238 238 233 234 236 235 232 229 225 223 222 222 220 220 221 219 214 213 214 215 223 235 243 249 255 263 276 288 285 263 257 256 249 240 239 239 237 236 240 245 249 252 251 248 247 247 244 243 246 249 251 256 260 260 261 264 264 263 267 270 268 266 267 269 273 277 277 271
224 225 225 225 225 227 231 233 234 235 236 235 233 232 232 230 224 221 226 232 232 229 230 231 230 229 228 223 217 215 215 215 215 216 215 213 213 216 220 230 240 249 257 266 273 283 292 284 260 252 253 251 245 241 240 239 240 243 244 246 250 249 243 242 245 247 249 252 254 256 260 261 260 262 266 267 266 266 265 263 265 267 267 271 277 276 267
224 225 228 229 228 229 232 235 237 238 238 235 230 228 228 225 218 218 224 229 229 227 229 229 225 221 220 218 216 215 215 215 216 217 218 218 219 222 228 239 249 258 266 274 281 285 283 267 250 246 250 255 259 260 254 243 239 243 245 244 241 240 240 241 244 246 251 255 257 259 264 267 269 269 268 266 266 267 267 267 268 268 267 271 275 271 262
224 226 228 231 232 232 234 236 238 241 243 241 236 231 229 228 223 222 226 230 231 231 233 235 231 225 223 222 221 221 221 221 221 222 223 224 228 233 240 250 260 266 271 277 282 281 268 250 247 250 252 252 255 261 261 249 237 235 240 240 237 237 241 244 246 247 253 260 262 261 261 263 263 263 266 270 275 277 277 275 274 271 268 272 274 269 262